SWR5LD LSZH-LIRF

Flight info

Callsign SWR5LD
Flight time N/A
Altitude 35000
Route DEGES Y170 ARGAX DCT RESIA DCT BENUS DCT BAGNO DCT GAVRA DCT RITEB
Aircraft A320/M-SDE3FGHIRWY/LB1

Departure

Time 2026-04-30 07:39
Airport Zürich Airport (LSZH)

Arrival

Time N/A
Airport Rome–Fiumicino Leonardo da Vinci International Airport (LIRF)
Time Latitude Longitude Altitude Speed Heading
2026-04-30 07:04 47.45337 8.55807 1407 ft 0 kts
2026-04-30 07:27 47.45318 8.55804 1407 ft 4 kts
2026-04-30 07:27 47.45297 8.55801 1412 ft 4 kts
2026-04-30 07:27 47.45270 8.55802 1407 ft 4 kts 335°
2026-04-30 07:27 47.45258 8.55825 1413 ft 4 kts 276°
2026-04-30 07:28 47.45256 8.55850 1407 ft 0 kts 276°
2026-04-30 07:30 47.45257 8.55836 1407 ft 4 kts 276°
2026-04-30 07:30 47.45263 8.55766 1408 ft 8 kts 277°
2026-04-30 07:30 47.45269 8.55688 1406 ft 7 kts 277°
2026-04-30 07:31 47.45274 8.55623 1406 ft 6 kts 277°
2026-04-30 07:31 47.45281 8.55569 1412 ft 5 kts 285°
2026-04-30 07:31 47.45301 8.55499 1404 ft 10 kts 298°
2026-04-30 07:31 47.45351 8.55407 1401 ft 12 kts 324°
2026-04-30 07:32 47.45432 8.55349 1407 ft 13 kts 335°
2026-04-30 07:32 47.45522 8.55291 1398 ft 14 kts 335°
2026-04-30 07:32 47.45616 8.55227 1400 ft 15 kts 344°
2026-04-30 07:32 47.45681 8.55310 1398 ft 13 kts 85°
2026-04-30 07:33 47.45671 8.55425 1408 ft 10 kts 99°
2026-04-30 07:33 47.45662 8.55506 1402 ft 6 kts 99°
2026-04-30 07:33 47.45658 8.55563 1408 ft 8 kts 95°
2026-04-30 07:33 47.45652 8.55655 1405 ft 7 kts 95°
2026-04-30 07:34 47.45649 8.55714 1405 ft 5 kts 95°
2026-04-30 07:34 47.45641 8.55833 1408 ft 16 kts 96°
2026-04-30 07:34 47.45630 8.55993 1410 ft 16 kts 95°
2026-04-30 07:34 47.45620 8.56152 1411 ft 15 kts 95°
2026-04-30 07:35 47.45609 8.56307 1413 ft 15 kts 97°
2026-04-30 07:35 47.45598 8.56449 1414 ft 14 kts 96°
2026-04-30 07:35 47.45588 8.56575 1416 ft 10 kts 97°
2026-04-30 07:35 47.45582 8.56662 1418 ft 8 kts 96°
2026-04-30 07:36 47.45575 8.56757 1419 ft 8 kts 96°
2026-04-30 07:36 47.45570 8.56825 1422 ft 7 kts 95°
2026-04-30 07:36 47.45567 8.56889 1420 ft 5 kts 93°
2026-04-30 07:36 47.45566 8.56931 1420 ft 3 kts 88°
2026-04-30 07:37 47.45568 8.56950 1421 ft 0 kts 78°
2026-04-30 07:37 47.45581 8.56989 1422 ft 12 kts 52°
2026-04-30 07:37 47.45625 8.57016 1424 ft 4 kts 358°
2026-04-30 07:37 47.45652 8.56989 1424 ft 5 kts 309°
2026-04-30 07:38 47.45662 8.56953 1424 ft 0 kts 282°
2026-04-30 07:38 47.45698 8.56513 1416 ft 83 kts 276°
2026-04-30 07:38 47.45781 8.55343 1399 ft 144 kts 276°
2026-04-30 07:39 47.45900 8.53802 1838 ft 149 kts 279°
2026-04-30 07:39 47.46027 8.52212 2222 ft 166 kts 279°
2026-04-30 07:39 47.46170 8.50435 2589 ft 179 kts 279°
2026-04-30 07:39 47.46258 8.48499 2903 ft 201 kts 266°
2026-04-30 07:40 47.45704 8.46480 3209 ft 223 kts 241°
2026-04-30 07:40 47.44925 8.44479 3907 ft 226 kts 240°
2026-04-30 07:40 47.44146 8.42437 4590 ft 231 kts 241°
2026-04-30 07:40 47.43371 8.40334 5263 ft 236 kts 240°
2026-04-30 07:41 47.42501 8.38241 5887 ft 240 kts 222°
2026-04-30 07:41 47.41118 8.37026 6504 ft 235 kts 187°
2026-04-30 07:41 47.39533 8.37132 7150 ft 228 kts 154°
2026-04-30 07:41 47.38277 8.38460 7815 ft 224 kts 123°
2026-04-30 07:42 47.37700 8.40553 8458 ft 224 kts 93°
2026-04-30 07:42 47.37977 8.42798 9073 ft 228 kts 62°
2026-04-30 07:42 47.39011 8.44602 9667 ft 234 kts 44°
2026-04-30 07:42 47.40190 8.46272 10354 ft 236 kts 45°
2026-04-30 07:43 47.41360 8.47991 11047 ft 238 kts 46°
2026-04-30 07:43 47.42526 8.49723 11737 ft 239 kts 46°
2026-04-30 07:43 47.43681 8.51440 12408 ft 240 kts 45°
2026-04-30 07:43 47.44866 8.53197 13091 ft 241 kts 45°
2026-04-30 07:44 47.45932 8.55101 13717 ft 245 kts 64°
2026-04-30 07:44 47.46395 8.57639 13897 ft 269 kts 82°
2026-04-30 07:44 47.46470 8.60516 14039 ft 293 kts 88°
2026-04-30 07:44 47.46419 8.63649 14172 ft 315 kts 89°
2026-04-30 07:45 47.46364 8.66986 14336 ft 334 kts 89°
2026-04-30 07:45 47.46357 8.70475 14815 ft 342 kts 87°
2026-04-30 07:45 47.46409 8.73990 15421 ft 346 kts 85°
2026-04-30 07:45 47.46508 8.77520 16022 ft 348 kts 84°
2026-04-30 07:46 47.46608 8.81114 16630 ft 352 kts 88°
2026-04-30 07:46 47.46358 8.84736 17238 ft 359 kts 97°
2026-04-30 07:46 47.45847 8.88360 17831 ft 362 kts 98°
2026-04-30 07:46 47.45320 8.92008 18405 ft 365 kts 98°
2026-04-30 07:47 47.44788 8.95686 18963 ft 368 kts 98°
2026-04-30 07:47 47.44253 8.99390 19522 ft 370 kts 98°
2026-04-30 07:47 47.43719 9.03121 20068 ft 373 kts 98°
2026-04-30 07:47 47.43182 9.06883 20595 ft 376 kts 98°
2026-04-30 07:48 47.42621 9.10665 21119 ft 380 kts 101°
2026-04-30 07:48 47.41640 9.14267 21623 ft 390 kts 115°
2026-04-30 07:48 47.40007 9.17519 22097 ft 401 kts 130°
2026-04-30 07:48 47.37800 9.20098 22578 ft 411 kts 146°
2026-04-30 07:49 47.35143 9.21777 23043 ft 421 kts 162°
2026-04-30 07:49 47.32258 9.22624 23491 ft 426 kts 167°
2026-04-30 07:49 47.29329 9.23396 23921 ft 429 kts 167°
2026-04-30 07:49 47.26388 9.24166 24355 ft 431 kts 167°
2026-04-30 07:50 47.23419 9.24940 24775 ft 434 kts 167°
2026-04-30 07:50 47.20445 9.25715 25166 ft 437 kts 167°
2026-04-30 07:50 47.17476 9.26494 25550 ft 439 kts 167°
2026-04-30 07:50 47.14463 9.27292 25943 ft 441 kts 167°
2026-04-30 07:51 47.11431 9.28099 26294 ft 444 kts 167°
2026-04-30 07:51 47.08414 9.29071 26650 ft 444 kts 160°
2026-04-30 07:51 47.05545 9.30678 26990 ft 442 kts 150°
2026-04-30 07:51 47.02889 9.32922 27327 ft 440 kts 141°
2026-04-30 07:52 47.00517 9.35717 27647 ft 438 kts 134°
2026-04-30 07:52 46.98248 9.38726 27955 ft 440 kts 134°
2026-04-30 07:52 46.95976 9.41730 28252 ft 443 kts 134°
2026-04-30 07:52 46.93705 9.44724 28572 ft 444 kts 134°
2026-04-30 07:53 46.91402 9.47752 28861 ft 447 kts 134°
2026-04-30 07:53 46.89083 9.50795 29162 ft 449 kts 134°
2026-04-30 07:53 46.86753 9.53849 29430 ft 451 kts 134°
2026-04-30 07:53 46.84413 9.56911 29689 ft 453 kts 134°
2026-04-30 07:54 46.82055 9.59990 29939 ft 455 kts 135°
2026-04-30 07:54 46.79687 9.63082 30188 ft 458 kts 135°
2026-04-30 07:54 46.77309 9.66184 30428 ft 460 kts 135°
2026-04-30 07:54 46.74920 9.69298 30662 ft 462 kts 135°
2026-04-30 07:55 46.72519 9.72423 30869 ft 464 kts 135°
2026-04-30 07:55 46.70138 9.75522 31052 ft 466 kts 135°
2026-04-30 07:55 46.67718 9.78665 31257 ft 468 kts 135°
2026-04-30 07:55 46.65291 9.81813 31529 ft 467 kts 135°
2026-04-30 07:56 46.62866 9.84957 31781 ft 467 kts 135°
2026-04-30 07:56 46.60436 9.88102 32018 ft 467 kts 136°
2026-04-30 07:56 46.58002 9.91236 32256 ft 467 kts 136°
2026-04-30 07:56 46.55569 9.94362 32517 ft 468 kts 136°
2026-04-30 07:57 46.53135 9.97492 32801 ft 467 kts 136°
2026-04-30 07:57 46.50701 10.00626 33075 ft 467 kts 136°
2026-04-30 07:57 46.48208 10.03652 33337 ft 469 kts 142°
2026-04-30 07:57 46.45441 10.06176 33581 ft 470 kts 151°
2026-04-30 07:58 46.42543 10.08375 33822 ft 471 kts 151°
2026-04-30 07:58 46.39678 10.10543 34058 ft 470 kts 151°
2026-04-30 07:58 46.36782 10.12736 34311 ft 470 kts 151°
2026-04-30 07:58 46.33881 10.14934 34551 ft 470 kts 151°
2026-04-30 07:59 46.30987 10.17128 34797 ft 470 kts 151°
2026-04-30 07:59 46.28092 10.19323 35033 ft 469 kts 152°
2026-04-30 07:59 46.25198 10.21513 35225 ft 470 kts 152°
2026-04-30 08:00 46.16564 10.28003 35285 ft 464 kts 152°
2026-04-30 08:00 46.10879 10.32280 35286 ft 464 kts 152°
2026-04-30 08:01 46.05158 10.36590 35278 ft 464 kts 152°
2026-04-30 08:01 45.99428 10.40881 35287 ft 465 kts 152°
2026-04-30 08:02 45.90852 10.47266 35283 ft 466 kts 153°
2026-04-30 08:03 45.79339 10.55818 35280 ft 466 kts 153°
2026-04-30 08:04 45.73567 10.60084 35282 ft 467 kts 153°
2026-04-30 08:04 45.67786 10.64354 35277 ft 468 kts 153°
2026-04-30 08:05 45.62038 10.68591 35277 ft 468 kts 153°
2026-04-30 08:05 45.56241 10.72855 35284 ft 469 kts 153°
2026-04-30 08:06 45.50432 10.77113 35291 ft 469 kts 153°
2026-04-30 08:06 45.44660 10.81340 35292 ft 470 kts 154°
2026-04-30 08:07 45.38835 10.85589 35294 ft 471 kts 154°
2026-04-30 08:07 45.33001 10.89832 35296 ft 471 kts 154°
2026-04-30 08:08 45.27166 10.94075 35295 ft 472 kts 154°
2026-04-30 08:08 45.21321 10.98322 35296 ft 472 kts 154°
2026-04-30 08:09 45.15471 11.02556 35297 ft 472 kts 154°
2026-04-30 08:09 45.09647 11.06752 35299 ft 473 kts 155°
2026-04-30 08:10 45.03786 11.10970 35291 ft 473 kts 155°
2026-04-30 08:10 44.97912 11.15180 35288 ft 474 kts 155°
2026-04-30 08:11 44.92027 11.19402 35284 ft 475 kts 155°
2026-04-30 08:11 44.86104 11.23359 35282 ft 474 kts 159°
2026-04-30 08:12 44.80017 11.26911 35277 ft 473 kts 161°
2026-04-30 08:12 44.73911 11.30394 35276 ft 474 kts 161°
2026-04-30 08:13 44.67821 11.33982 35271 ft 475 kts 160°
2026-04-30 08:13 44.61784 11.37601 35264 ft 475 kts 160°
2026-04-30 08:14 44.55700 11.41226 35263 ft 475 kts 161°
2026-04-30 08:14 44.49606 11.44826 35268 ft 476 kts 161°
2026-04-30 08:15 44.43503 11.48427 35258 ft 476 kts 161°
2026-04-30 08:15 44.37439 11.52000 35250 ft 477 kts 161°
2026-04-30 08:16 44.31314 11.55610 35250 ft 477 kts 161°
2026-04-30 08:16 44.25190 11.59192 35251 ft 478 kts 162°
2026-04-30 08:17 44.19059 11.62773 35259 ft 478 kts 162°
2026-04-30 08:17 44.12926 11.66355 35245 ft 478 kts 162°
2026-04-30 08:18 44.06828 11.69907 35244 ft 479 kts 162°
2026-04-30 08:18 44.00678 11.73492 35243 ft 479 kts 162°
2026-04-30 08:19 43.94532 11.77060 35247 ft 479 kts 162°
2026-04-30 08:19 43.88346 11.80222 35248 ft 472 kts 173°
2026-04-30 08:20 43.81921 11.81621 35242 ft 467 kts 178°
2026-04-30 08:20 43.75487 11.82963 35239 ft 469 kts 175°
2026-04-30 08:21 43.69091 11.84930 35233 ft 472 kts 172°
2026-04-30 08:21 43.62762 11.87167 35166 ft 471 kts 171°
2026-04-30 08:21 43.59599 11.88256 34712 ft 467 kts 172°
2026-04-30 08:22 43.56451 11.89293 34239 ft 463 kts 173°
2026-04-30 08:22 43.53327 11.90283 33749 ft 458 kts 173°
2026-04-30 08:22 43.50231 11.91247 33278 ft 455 kts 174°
2026-04-30 08:22 43.47149 11.92207 32803 ft 452 kts 174°
2026-04-30 08:23 43.44099 11.93162 32352 ft 448 kts 174°
2026-04-30 08:23 43.41110 11.94104 31904 ft 445 kts 174°
2026-04-30 08:23 43.38062 11.95067 31446 ft 441 kts 174°
2026-04-30 08:23 43.35125 11.95992 30999 ft 438 kts 174°
2026-04-30 08:24 43.32161 11.96926 30563 ft 434 kts 174°
2026-04-30 08:24 43.29229 11.97852 30130 ft 431 kts 174°
2026-04-30 08:24 43.26313 11.98774 29688 ft 428 kts 173°
2026-04-30 08:24 43.23424 11.99686 29224 ft 425 kts 173°
2026-04-30 08:25 43.20549 12.00591 28790 ft 422 kts 173°
2026-04-30 08:25 43.17707 12.01479 28373 ft 418 kts 173°
2026-04-30 08:25 43.14875 12.02363 27955 ft 415 kts 173°
2026-04-30 08:25 43.12077 12.03238 27540 ft 412 kts 173°
2026-04-30 08:26 43.09291 12.04111 27124 ft 408 kts 173°
2026-04-30 08:26 43.06571 12.04962 26707 ft 405 kts 173°
2026-04-30 08:26 43.03831 12.05817 26288 ft 402 kts 173°
2026-04-30 08:26 43.01117 12.06662 25878 ft 399 kts 172°
2026-04-30 08:27 42.98425 12.07501 25449 ft 395 kts 172°
2026-04-30 08:27 42.95755 12.08335 25054 ft 392 kts 172°
2026-04-30 08:27 42.93106 12.09164 24637 ft 389 kts 172°
2026-04-30 08:27 42.90480 12.09982 24214 ft 386 kts 172°
2026-04-30 08:28 42.87871 12.10793 23799 ft 383 kts 172°
2026-04-30 08:28 42.85320 12.11584 23409 ft 379 kts 172°
2026-04-30 08:28 42.82763 12.12375 22999 ft 377 kts 172°
2026-04-30 08:28 42.80211 12.13162 22578 ft 374 kts 172°
2026-04-30 08:29 42.77686 12.13939 22169 ft 372 kts 172°
2026-04-30 08:29 42.75162 12.14722 21819 ft 368 kts 171°
2026-04-30 08:29 42.72699 12.15490 21588 ft 361 kts 172°
2026-04-30 08:29 42.70275 12.16365 21245 ft 361 kts 163°
2026-04-30 08:30 42.68007 12.17835 20875 ft 363 kts 153°
2026-04-30 08:30 42.65868 12.19554 20498 ft 361 kts 153°
2026-04-30 08:30 42.63714 12.21283 20110 ft 359 kts 153°
2026-04-30 08:30 42.61573 12.22997 19732 ft 356 kts 153°
2026-04-30 08:31 42.59443 12.24696 19364 ft 354 kts 153°
2026-04-30 08:31 42.57325 12.26387 19006 ft 352 kts 153°
2026-04-30 08:31 42.55223 12.28071 18651 ft 350 kts 153°
2026-04-30 08:31 42.53134 12.29744 18305 ft 348 kts 153°
2026-04-30 08:32 42.51052 12.31403 17961 ft 345 kts 153°
2026-04-30 08:32 42.48990 12.33040 17609 ft 343 kts 153°
2026-04-30 08:32 42.46934 12.34675 17257 ft 341 kts 153°
2026-04-30 08:32 42.44926 12.36274 16920 ft 340 kts 152°
2026-04-30 08:33 42.42858 12.37915 16577 ft 338 kts 152°
2026-04-30 08:33 42.40836 12.39515 16234 ft 336 kts 152°
2026-04-30 08:33 42.38859 12.41079 16068 ft 329 kts 152°
2026-04-30 08:33 42.36910 12.42624 15938 ft 320 kts 153°
2026-04-30 08:34 42.35544 12.43489 15850 ft 312 kts 164°
2026-04-30 08:34 42.33494 12.44370 15625 ft 306 kts 166°
2026-04-30 08:34 42.31467 12.45223 15335 ft 304 kts 166°
2026-04-30 08:34 42.28794 12.46345 14937 ft 303 kts 165°
2026-04-30 08:35 42.26792 12.47188 14643 ft 302 kts 165°
2026-04-30 08:35 42.25430 12.47732 14437 ft 300 kts 171°
2026-04-30 08:35 42.23427 12.47703 14295 ft 282 kts 201°
2026-04-30 08:35 42.21804 12.46464 14058 ft 267 kts 230°
2026-04-30 08:36 42.20846 12.44408 13750 ft 257 kts 255°
2026-04-30 08:36 42.20309 12.42111 13402 ft 258 kts 256°
2026-04-30 08:36 42.19779 12.39797 13090 ft 258 kts 256°
2026-04-30 08:36 42.19320 12.37473 12776 ft 254 kts 269°
2026-04-30 08:37 42.19595 12.35200 12463 ft 246 kts 299°
2026-04-30 08:37 42.20690 12.33480 12117 ft 243 kts 328°
2026-04-30 08:37 42.22248 12.32623 11766 ft 244 kts 342°
2026-04-30 08:37 42.23842 12.31954 11421 ft 244 kts 342°
2026-04-30 08:38 42.25473 12.31275 11083 ft 245 kts 342°
2026-04-30 08:38 42.27102 12.30593 10749 ft 245 kts 342°
2026-04-30 08:38 42.28731 12.29912 10408 ft 245 kts 342°
2026-04-30 08:38 42.30362 12.29230 10070 ft 245 kts 343°
2026-04-30 08:39 42.31994 12.28546 9696 ft 246 kts 343°
2026-04-30 08:39 42.33629 12.27858 9348 ft 246 kts 343°
2026-04-30 08:39 42.35240 12.27177 8988 ft 246 kts 343°
2026-04-30 08:39 42.36876 12.26483 8621 ft 246 kts 343°
2026-04-30 08:40 42.38506 12.25792 8266 ft 246 kts 344°
2026-04-30 08:40 42.40102 12.24990 7917 ft 245 kts 329°
2026-04-30 08:40 42.41262 12.23343 7586 ft 245 kts 297°
2026-04-30 08:40 42.41584 12.21101 7232 ft 247 kts 263°
2026-04-30 08:41 42.41119 12.18868 6838 ft 248 kts 252°
2026-04-30 08:41 42.40581 12.16642 6504 ft 248 kts 253°
2026-04-30 08:41 42.40070 12.14457 6162 ft 246 kts 253°
2026-04-30 08:41 42.39511 12.12277 5859 ft 245 kts 242°
2026-04-30 08:42 42.38377 12.10632 5566 ft 240 kts 207°
2026-04-30 08:42 42.36794 12.10111 5226 ft 236 kts 174°
2026-04-30 08:42 42.35248 12.10751 4869 ft 234 kts 155°
2026-04-30 08:42 42.33720 12.11520 4513 ft 234 kts 161°
2026-04-30 08:43 42.32164 12.12156 4166 ft 234 kts 163°
2026-04-30 08:43 42.30598 12.12769 3799 ft 235 kts 162°
2026-04-30 08:43 42.29061 12.13367 3578 ft 233 kts 163°
2026-04-30 08:43 42.27508 12.13988 3501 ft 231 kts 162°
2026-04-30 08:44 42.25986 12.14606 3503 ft 232 kts 163°
2026-04-30 08:44 42.24448 12.15239 3502 ft 231 kts 162°
2026-04-30 08:44 42.22909 12.15881 3503 ft 232 kts 162°
2026-04-30 08:44 42.21372 12.16528 3506 ft 231 kts 162°
2026-04-30 08:45 42.19834 12.17175 3514 ft 231 kts 162°
2026-04-30 08:45 42.18300 12.17824 3513 ft 231 kts 162°
2026-04-30 08:45 42.16737 12.18295 3508 ft 231 kts 183°
2026-04-30 08:45 42.15190 12.17886 3516 ft 231 kts 193°
2026-04-30 08:46 42.13617 12.17405 3515 ft 231 kts 193°
2026-04-30 08:46 42.12073 12.16940 3512 ft 223 kts 192°
2026-04-30 08:46 42.10600 12.16496 3508 ft 211 kts 192°
2026-04-30 08:46 42.09262 12.16212 3500 ft 208 kts 179°
2026-04-30 08:47 42.07836 12.16453 3364 ft 206 kts 166°
2026-04-30 08:47 42.06459 12.16963 3201 ft 204 kts 163°
2026-04-30 08:47 42.05104 12.17527 3102 ft 204 kts 162°
2026-04-30 08:47 42.03748 12.18098 2925 ft 204 kts 162°
2026-04-30 08:48 42.02415 12.18660 2759 ft 203 kts 162°
2026-04-30 08:48 42.01065 12.19228 2575 ft 204 kts 162°
2026-04-30 08:48 41.99717 12.19796 2422 ft 203 kts 161°
2026-04-30 08:48 41.98370 12.20363 2271 ft 203 kts 162°
2026-04-30 08:49 41.97026 12.20929 2116 ft 202 kts 162°
2026-04-30 08:49 41.95679 12.21496 2000 ft 203 kts 162°
2026-04-30 08:49 41.94358 12.22051 1944 ft 197 kts 162°
2026-04-30 08:49 41.93083 12.22587 1771 ft 188 kts 162°
2026-04-30 08:50 41.91879 12.23092 1529 ft 175 kts 162°
2026-04-30 08:50 41.90770 12.23558 1316 ft 160 kts 162°
2026-04-30 08:50 41.89745 12.23989 1103 ft 152 kts 161°
2026-04-30 08:50 41.88748 12.24407 915 ft 148 kts 162°
2026-04-30 08:51 41.87771 12.24817 714 ft 147 kts 162°
2026-04-30 08:51 41.86799 12.25225 521 ft 146 kts 162°
2026-04-30 08:51 41.85832 12.25630 327 ft 146 kts 162°
2026-04-30 08:51 41.84882 12.26028 137 ft 145 kts 162°